Location: Hackbridge
(51.3833°N, 0.1500°W)
Time: 14:14:35
(UTC+00:00)

Cosmos 1503 Rocket - Pass Details

Date: 13 October 2019
Orbit: 753 x 790 km, 74.0° (Epoch: 18 November)

Event Time Altitude Azimuth Distance (km) Brightness Sun altitude
Rises 17:35:23 0° 337° (NNW) 3,225 7.5 -4.4°
Reaches altitude 10° 17:37:50 10° 342° (NNW) 2,293 6.6 -4.7°
Maximum altitude 17:42:55 53° 59° (ENE) 930 4.2 -5.5°
Drops below altitude 10° 17:47:57 10° 137° (SE) 2,276 6.1 -6.3°
Sets 17:50:22 0° 142° (SE) 3,199 6.9 -6.7°
